User: anonymous   Login
Location: Unspecified
(0.0000°N, 0.0000°E)
Time: 14:22:04
(UTC+02:00)
Language:

Landsat 4 - Orbit

View from above orbital plane
View from above orbital plane
View from above satellite
View from above satellite

Ground track
Ground track

The orbit data is extracted from the following two-line orbital elements,

1 13367U 82072A   16209.00047911  .00000861  00000-0  50016-4 0  9990
2 13367  98.2078 338.8784 0012572 222.2601 274.0692 15.15161501835775
Epoch (UTC): 27 July 2016 00:00:41
Eccentricity: 0.0012572
inclination: 98.2078°
perigee height: 512 km
apogee height: 529 km
right ascension of ascending node: 338.8784°
argument of perigee: 222.2601°
revolutions per day: 15.15161501
mean anomaly at epoch: 274.0692°
orbit number at epoch: 83577

The dashed part of the orbit path shows where the satellite is in the earth's shadow,  

DLR